sat.trackr.live / text

‹ back to catalog

CANX-5

NORAD 40056 · 2014-034D

PAYLOAD ACTIVE UNKNOWN

§ Identity

Operator
Country
CA
Launch date
2014-06-30
Launch site
SRILR
Launch vehicle
Mass (kg)
RCS (m²)
0.10

Purposes: tech_demo

External: N2YO · Heavens-Above · Gunter

§ Orbital elements

Epoch: 2026-09-20T02:53:54.894336Z

Period
97.20 min
Inclination
98.2957°
Eccentricity
0.0014002
Mean motion
14.81417535 rev/d
Perigee alt
615.0 km
Apogee alt
634.7 km
Semi-major
7,003.0 km
B*
7.3719e-5
RAAN
141.8993°
Arg perigee
67.9688°
Mean anomaly
292.3009°
Rev number
64,939

§ Raw data

CANX-51 40056U 14034D   26263.12077424  .00000520  00000+0  73719-4 0  99902 40056  98.2957 141.8993 0014002  67.9688 292.3009 14.81417535649398

JSON: /api/v1/satellites/40056 · /tle

For live sub-satellite position, see the globe view (requires WebGL).

§ Visibility from observer

Set your observer location to see the next 7 days of passes ≥ 10°. The values pass through the URL so the page stays shareable.

No JS? Fill the form by hand. The geolocation button needs JavaScript.

§ Radio — SatNOGS DB

ModeDescriptionDownlinkUplink
BPSK Beacon 437.365 MHz
BPSK Telem 145.890 MHz
BPSK Telem 2.234 GHz

3 transmitters · refreshed weekly from db.satnogs.org